カタログに戻る

STARLINK-34726

運用中通信SSO
NORAD 64935·PAYLOAD·🇺🇸 United States

打ち上げ Jul 26, 2025 から Vandenberg Space Force Base

Loading…

次のパス (今後24時間)

TLE

最新Source: CelesTrak SupGP

元期: Sep 14, 2026, 22:47 UTC

1 64935C 25158D   26257.94979167  .00081838  00000+0  25422-2 0  2573
2 64935  97.2840 116.3462 0001928 100.2651 351.7041 15.33375284    10

AllMySatでSTARLINK-34726をリアルタイム追跡

Download on the App Store